User: anonymous   Login
Location: Cluny
(50.9333°N, 112.8167°W)
Time: 16:25:51
(UTC-06:00)
Language:

Cosmos 1743 Rocket - Orbit

View from above orbital plane
View from above orbital plane
View from above satellite
View from above satellite

Ground track
Ground track

The orbit data is extracted from the following two-line orbital elements,

1 16720U 86034B   16270.15676503  .00000110  00000-0  10559-4 0  9992
2 16720  82.5528 127.6619 0018769 251.3297 245.2627 14.83249464640126
Epoch (UTC): 26 September 2016 03:45:44
Eccentricity: 0.0018769
inclination: 82.5528°
perigee height: 606 km
apogee height: 632 km
right ascension of ascending node: 127.6619°
argument of perigee: 251.3297°
revolutions per day: 14.83249464
mean anomaly at epoch: 245.2627°
orbit number at epoch: 64012

The dashed part of the orbit path shows where the satellite is in the earth's shadow,  

DLR